Regional Weather Roundup
Issued by NWS

Home | Current Version | Previous Version | Graphics & Text | Print | Product List | Glossary On
Versions: 1 2 3 4 5 6 7 8 9 10 11 12 13 14 15 16 17 18 19 20 21 22 23 24 25 26 27 28 29 30 31 32 33 34 35 36 37 38 39 40 41 42 43 44 45 46 47 48 49 50
000
ASUS43 KIND 061959
RWRIN

WEATHER ROUNDUP FOR INDIANA
NATIONAL WEATHER SERVICE INDIANAPOLIS IN
400 PM EDT WED MAY 06 2015

NOTE: "FAIR" INDICATES FEW OR NO CLOUDS BELOW 12,000 FEET WITH NO
SIGNIFICANT WEATHER AND/OR OBSTRUCTIONS TO VISIBILITY.

* - STATION DOES NOT REPORT WEATHER SUCH AS PRECIPITATION OR FOG.

+ - STATION NOT QUALITY CONTROLLED BY THE NATIONAL WEATHER SERVICE.
    USE DATA WITH CAUTION...ESPECIALLY DEWPOINT AND RELATIVE
    HUMIDITY OBSERVATIONS.

INZ001>003-010>013-019-020-062100-
NORTHWEST INDIANA

CITY           SKY/WX    TMP DP  RH WIND       PRES   REMARKS
GARY /AIRPORT/ MOSUNNY   64 N/A N/A N8        30.13F HAZE

$$

LMZ046-743>745-062100-
SOUTHERN LAKE MICHIGAN

STATION/POSITION TIME  TEMP    WIND        PRES    WAVE
                       AIR SEA DIR/SP/G            HT
                 (UTC) (F)     (DEG/KT/KT) (MB)    (FT)
BURNS HARBOR     1900   58      70/  8/  9 1021.0F
MICHIGAN CITY    1900   55      30/  8/  9   N/A
5NW MICH CITY    1900   53 53   50/  6/  8   N/A     1

$$

INZ004-005-014>016-021>024-062100-
NORTH CENTRAL INDIANA

CITY           SKY/WX    TMP DP  RH WIND       PRES   REMARKS
ELKHART        SUNNY     77  59  53 SE5       30.17
GOSHEN         SUNNY     79  62  56 CALM      30.15F
SOUTH BEND     MOSUNNY   81  59  47 VRB5      30.14F

$$

INZ006>009-017-018-025>027-062100-
NORTHEAST INDIANA

CITY           SKY/WX    TMP DP  RH WIND       PRES   REMARKS
ANGOLA *+      SUNNY     73  63  68 S6        30.18F
FORT WAYNE     MOSUNNY   80  61  52 N5        30.16F

$$

INZ028-029-035-036-043>045-051>053-062100-
WEST CENTRAL INDIANA

CITY           SKY/WX    TMP DP  RH WIND       PRES   REMARKS
GREENCASTLE +  SUNNY     82  45  26 SW6       30.14F
LAFAYETTE      MOSUNNY   82  51  34 S6        30.11F
TERRE HAUTE    SUNNY     85  53  33 SE9       30.12F

$$

INZ030>032-037>040-046>048-054>057-064-065-062100-
CENTRAL INDIANA

CITY           SKY/WX    TMP DP  RH WIND       PRES   REMARKS
ANDERSON       PTSUNNY   82  41  23 CALM      30.16F
COLUMBUS       PTSUNNY   82  50  32 CALM      30.14F
GREENWOOD *+   PTSUNNY   84  45  24 CALM      30.15F
INDIANAPOLIS   PTSUNNY   84  51  31 W3        30.13F
-EAGLE CREEK   MOSUNNY   82  51  34 VRB5      30.13F
KOKOMO *+      SUNNY     84  55  37 N3        30.13F
MT COMFORT *+  MOSUNNY   84  21  10 CALM      30.14F
SHELBYVILLE    MOSUNNY   85  51  31 VRB3      30.14F

$$

INZ033-034-041-042-049-050-058-059-062100-
EAST CENTRAL INDIANA

CITY           SKY/WX    TMP DP  RH WIND       PRES   REMARKS
MUNCIE         PTSUNNY   82  54  37 E5        30.15F

$$

INZ060-061-067>069-081>083-085>088-062100-
SOUTHWEST INDIANA

CITY           SKY/WX    TMP DP  RH WIND       PRES   REMARKS
EVANSVILLE     SUNNY     85  54  34 VRB5      30.11F
HUNTINGBURG *+ MOSUNNY   84  54  34 S7        30.12F

$$

INZ062-063-066-070>080-084-089>092-062100-
SOUTH CENTRAL AND SOUTHEAST INDIANA

CITY           SKY/WX    TMP DP  RH WIND       PRES   REMARKS
BLOOMINGTON    MOSUNNY   84  49  29 SW6       30.14F
MADISON *+     SUNNY     84  43  23 CALM      30.16F
SEYMOUR +      MOSUNNY   86  55  35 S5        30.13F

$$



USA.gov is the U.S. government's official web portal to all federal, state and local government web resources and services.